Overview Statistics Trail Chart Weather Telemetry Raw packets
 

This is the latest recevied weather packets stored in our database for station/object HP1COO-13. If no packets are shown the sender has not sent any weather packets the latest 10 day(s).

<< 1 2 3 4 5 6 >>
Time Temp. Humidity Pressure Rain* Wind** Luminosity Snow
1788643183 27.78° C 84% 1004.3 hPa 0 mm - - -
1788642550 27.22° C 84% 1004.6 hPa 0 mm - - -
1788641917 26.67° C 86% 1004.5 hPa 0 mm - - -
1788640651 26.67° C 87% 1004.4 hPa 0 mm - - -
1788640018 26.67° C 86% 1004.4 hPa 0 mm - - -
1788639385 26.11° C 86% 1004.6 hPa 0 mm - - -
1788638752 26.67° C 86% 1004.6 hPa 0 mm - - -
1788638119 26.67° C 87% 1004.6 hPa 0 mm - - -
1788637486 26.11° C 89% 1004.6 hPa 0 mm - - -
1788636853 26.11° C 87% 1004.5 hPa 0 mm - - -
1788636220 26.11° C 87% 1004.8 hPa 0 mm - - -
1788635587 25.56° C 88% 1005.3 hPa 0 mm - - -
1788634954 25.56° C 88% 1004.8 hPa 0.25 mm - - -
1788634321 25.56° C 88% 1005.1 hPa 0.25 mm - - -
1788633688 25.56° C 88% 1005.3 hPa 0.25 mm - - -
1788633055 26.67° C 87% 1006 hPa 0 mm - - -
1788632422 28.33° C 85% 1005.6 hPa 0 mm - - -
1788631789 28.89° C 79% 1005.6 hPa 0 mm - - -
1788631156 30.56° C 79% 1005.8 hPa 0 mm - - -
1788630523 32.22° C 73% 1005.8 hPa 0 mm - - -
1788629890 32.78° C 70% 1005.8 hPa 0 mm - - -
1788629257 32.78° C 70% 1005.8 hPa 0 mm - - -
1788628624 33.33° C 68% 1005.9 hPa 0 mm - - -
1788627991 33.33° C 69% 1006.1 hPa 0 mm - - -
1788627358 33.33° C 69% 1006.3 hPa 0 mm - - -

* Rain latest hour (hover to see other rain measurements)
** Current wind speed in m/s (hover to see current wind gust speed)